| time (UTC) | temp C | wind direction | speed KPH | gust KPH | rain 1hr cm | rain 24hr cm | rain mn cm | humidity % | barometer mb |
| 20260506051204 | 9 | 0.0 | 0.0 | 0.00 | 0.00 | 0.00 | 16 | 1020.8 | |
| 20260506044204 | 10 | 22 | 0.0 | 0.0 | 0.00 | 0.00 | 0.00 | 16 | 1020.6 |
| 20260506043205 | 10 | 22 | 0.0 | 0.0 | 0.00 | 0.00 | 0.00 | 16 | 1020.6 |
| 20260506042206 | 10 | 22 | 0.0 | 0.0 | 0.00 | 0.00 | 0.00 | 16 | 1020.6 |
| 20260506041205 | 10 | 22 | 1.6 | 0.0 | 0.00 | 0.00 | 0.00 | 16 | 1020.6 |
| 20260506040205 | 11 | 68 | 1.6 | 6.4 | 0.00 | 0.00 | 0.00 | 16 | 1019.5 |
| 20260506035205 | 11 | 22 | 1.6 | 6.4 | 0.00 | 0.00 | 0.00 | 16 | 1019.5 |
| 20260506034205 | 11 | 112 | 1.6 | 6.4 | 0.00 | 0.00 | 0.00 | 16 | 1019.5 |
| 20260506033205 | 11 | 68 | 4.8 | 8.0 | 0.00 | 0.00 | 0.00 | 16 | 1020.5 |
| 20260506032205 | 11 | 22 | 3.2 | 8.0 | 0.00 | 0.00 | 0.00 | 16 | 1020.5 |
| 20260506031205 | 11 | 68 | 1.6 | 8.0 | 0.00 | 0.00 | 0.00 | 16 | 1019.5 |
| 20260506030205 | 11 | 68 | 3.2 | 9.7 | 0.00 | 0.00 | 0.00 | 16 | 1020.5 |
| 20260506024204 | 11 | 68 | 3.2 | 8.0 | 0.00 | 0.00 | 0.00 | 16 | 1020.5 |
| 20260506023205 | 11 | 22 | 1.6 | 6.4 | 0.00 | 0.00 | 0.00 | 16 | 1019.4 |
| 20260506022205 | 11 | 68 | 3.2 | 9.7 | 0.00 | 0.00 | 0.00 | 16 | 1019.4 |
| 20260506021205 | 11 | 45 | 1.6 | 9.7 | 0.00 | 0.00 | 0.00 | 16 | 1018.4 |
| 20260506020205 | 11 | 22 | 3.2 | 9.7 | 0.00 | 0.00 | 0.00 | 16 | 1019.4 |
| 20260506015206 | 11 | 68 | 4.8 | 6.4 | 0.00 | 0.00 | 0.00 | 16 | 1019.4 |
| 20260506014204 | 11 | 338 | 1.6 | 6.4 | 0.00 | 0.00 | 0.00 | 16 | 1018.3 |
| 20260506013205 | 11 | 68 | 0.0 | 6.4 | 0.00 | 0.00 | 0.00 | 16 | 1018.3 |
| 20260506011205 | 11 | 22 | 3.2 | 11.3 | 0.00 | 0.00 | 0.00 | 16 | 1017.2 |
| 20260506010205 | 11 | 22 | 3.2 | 11.3 | 0.00 | 0.00 | 0.00 | 16 | 1017.2 |
| 20260506005205 | 11 | 68 | 6.4 | 11.3 | 0.00 | 0.00 | 0.00 | 16 | 1017.2 |
| 20260506004205 | 12 | 22 | 4.8 | 9.7 | 0.00 | 0.00 | 0.00 | 15 | 1018.3 |
| 20260506002205 | 12 | 68 | 8.0 | 12.9 | 0.00 | 0.00 | 0.00 | 15 | 1018.2 |
| 20260506001204 | 12 | 68 | 9.7 | 12.9 | 0.00 | 0.00 | 0.00 | 15 | 1018.2 |
| 20260505235205 | 12 | 68 | 8.0 | 16.1 | 0.00 | 0.00 | 0.00 | 15 | 1018.2 |
| 20260505233204 | 12 | 22 | 6.4 | 17.7 | 0.00 | 0.00 | 0.00 | 15 | 1018.2 |
| 20260505232205 | 12 | 45 | 4.8 | 17.7 | 0.00 | 0.00 | 0.00 | 15 | 1018.1 |
| 20260505231204 | 12 | 22 | 12.9 | 14.5 | 0.00 | 0.00 | 0.00 | 15 | 1018.1 |
| 20260505230206 | 12 | 68 | 9.7 | 16.1 | 0.00 | 0.00 | 0.00 | 15 | 1018.1 |
| 20260505225205 | 13 | 45 | 12.9 | 12.9 | 0.00 | 0.00 | 0.00 | 15 | 1018.1 |
| 20260505224204 | 13 | 112 | 9.7 | 17.7 | 0.00 | 0.00 | 0.00 | 15 | 1017.0 |
| 20260505222205 | 13 | 68 | 14.5 | 16.1 | 0.00 | 0.00 | 0.00 | 15 | 1017.0 |
| 20260505221205 | 13 | 68 | 9.7 | 19.3 | 0.00 | 0.00 | 0.00 | 15 | 1015.9 |
| 20260505220206 | 13 | 68 | 14.5 | 17.7 | 0.00 | 0.00 | 0.00 | 15 | 1015.9 |
| 20260505214205 | 13 | 68 | 12.9 | 20.9 | 0.00 | 0.00 | 0.00 | 14 | 1015.8 |
| 20260505213205 | 13 | 68 | 8.0 | 9.7 | 0.00 | 0.00 | 0.00 | 14 | 1014.8 |
| 20260505211205 | 14 | 68 | 11.3 | 16.1 | 0.00 | 0.00 | 0.00 | 14 | 1014.7 |
| 20260505205205 | 14 | 22 | 14.5 | 22.5 | 0.00 | 0.00 | 0.00 | 14 | 1015.8 |
| 20260505204205 | 14 | 45 | 9.7 | 19.3 | 0.00 | 0.00 | 0.00 | 14 | 1015.8 |
| 20260505203205 | 14 | 22 | 12.9 | 20.9 | 0.00 | 0.00 | 0.00 | 14 | 1015.8 |
| 20260505202204 | 14 | 22 | 9.7 | 20.9 | 0.00 | 0.00 | 0.00 | 14 | 1015.8 |
| 20260505201205 | 14 | 68 | 14.5 | 17.7 | 0.00 | 0.00 | 0.00 | 14 | 1015.8 |
| 20260505194205 | 14 | 22 | 11.3 | 8.0 | 0.00 | 0.00 | 0.00 | 14 | 1015.8 |
| 20260505193205 | 14 | 22 | 8.0 | 8.0 | 0.00 | 0.00 | 0.00 | 14 | 1015.7 |
| 20260505192205 | 14 | 22 | 8.0 | 14.5 | 0.00 | 0.00 | 0.00 | 14 | 1015.7 |
| 20260505191204 | 15 | 45 | 6.4 | 14.5 | 0.00 | 0.00 | 0.00 | 14 | 1015.7 |
| 20260505190205 | 15 | 22 | 11.3 | 16.1 | 0.00 | 0.00 | 0.00 | 14 | 1015.7 |
| 20260505185205 | 15 | 68 | 11.3 | 19.3 | 0.00 | 0.00 | 0.00 | 14 | 1015.7 |
| 20260505184205 | 15 | 22 | 11.3 | 22.5 | 0.00 | 0.00 | 0.00 | 14 | 1015.6 |
| 20260505183205 | 15 | 90 | 12.9 | 22.5 | 0.00 | 0.00 | 0.00 | 14 | 1015.6 |
| 20260505182205 | 16 | 315 | 14.5 | 17.7 | 0.00 | 0.00 | 0.00 | 14 | 1015.5 |
| 20260505181205 | 16 | 22 | 12.9 | 14.5 | 0.00 | 0.00 | 0.00 | 14 | 1015.5 |
| 20260505180206 | 15 | 68 | 11.3 | 0.0 | 0.00 | 0.00 | 0.00 | 14 | 1015.6 |
| 20260505175205 | 15 | 0.0 | 0.0 | 0.00 | 0.00 | 0.00 | 14 | 1015.6 | |
| 20260505174205 | 15 | 0.0 | 0.0 | 0.00 | 0.00 | 0.00 | 14 | 1015.7 | |
| 20260505173205 | 14 | 0.0 | 0.0 | 0.00 | 0.00 | 0.00 | 14 | 1015.7 | |
| 20260505172205 | 14 | 0.0 | 0.0 | 0.00 | 0.00 | 0.00 | 14 | 1015.7 | |
| 20260505171205 | 14 | 0.0 | 0.0 | 0.00 | 0.00 | 0.00 | 14 | 1014.7 | |
| 20260505170205 | 14 | 0.0 | 0.0 | 0.00 | 0.00 | 0.00 | 14 | 1015.8 | |
| 20260505165204 | 13 | 0.0 | 0.0 | 0.00 | 0.00 | 0.00 | 15 | 1015.9 | |
| 20260505164205 | 13 | 0.0 | 0.0 | 0.00 | 0.00 | 0.00 | 15 | 1015.9 | |
| 20260505163205 | 13 | 0.0 | 0.0 | 0.00 | 0.00 | 0.00 | 15 | 1015.9 | |
| 20260505162205 | 13 | 0.0 | 0.0 | 0.00 | 0.00 | 0.00 | 15 | 1015.9 | |
| 20260505161205 | 13 | 0.0 | 0.0 | 0.00 | 0.00 | 0.00 | 15 | 1014.9 | |
| 20260505160205 | 13 | 0.0 | 0.0 | 0.00 | 0.00 | 0.00 | 15 | 1013.9 | |
| 20260505152206 | 13 | 0.0 | 0.0 | 0.00 | 0.00 | 0.00 | 15 | 1013.9 | |
| 20260505151205 | 13 | 0.0 | 0.0 | 0.00 | 0.00 | 0.00 | 15 | 1013.9 | |
| 20260505140205 | 13 | 0.0 | 0.0 | 0.00 | 0.00 | 0.00 | 15 | 1011.8 | |
| 20260505124205 | 13 | 0.0 | 0.0 | 0.00 | 0.00 | 0.00 | 14 | 1010.6 | |
| 20260505122205 | 13 | 0.0 | 0.0 | 0.00 | 0.00 | 0.00 | 14 | 1010.6 | |
| 20260505120206 | 14 | 45 | 14.5 | 16.1 | 0.00 | 0.00 | 0.00 | 14 | 1009.5 |
| 20260505115205 | 14 | 68 | 11.3 | 11.3 | 0.00 | 0.00 | 0.00 | 14 | 1009.5 |
| 20260505114205 | 15 | 0.0 | 0.0 | 0.00 | 0.00 | 0.00 | 14 | 1009.4 | |
| 20260505113205 | 15 | 0.0 | 0.0 | 0.00 | 0.00 | 0.00 | 14 | 1008.3 | |
| 20260505111205 | 15 | 0.0 | 17.7 | 0.00 | 0.00 | 0.00 | 14 | 1007.2 | |
| 20260505110205 | 16 | 68 | 14.5 | 17.7 | 0.00 | 0.00 | 0.00 | 14 | 1007.2 |
| 20260505102205 | 18 | 0.0 | 0.0 | 0.00 | 0.00 | 0.00 | 15 | 1006.8 | |
| 20260505101205 | 18 | 0.0 | 6.4 | 0.00 | 0.00 | 0.00 | 15 | 1006.8 | |
| 20260505100204 | 19 | 68 | 6.4 | 11.3 | 0.00 | 0.00 | 0.00 | 17 | 1006.6 |
| 20260505095206 | 19 | 68 | 6.4 | 17.7 | 0.00 | 0.00 | 0.00 | 22 | 1006.6 |
| 20260505092204 | 18 | 135 | 9.7 | 17.7 | 0.00 | 0.00 | 0.00 | 23 | 1005.7 |
| 20260505091205 | 18 | 45 | 9.7 | 16.1 | 0.00 | 0.00 | 0.00 | 24 | 1005.7 |
| 20260505090205 | 18 | 22 | 6.4 | 16.1 | 0.00 | 0.00 | 0.00 | 24 | 1005.8 |
| 20260505085205 | 18 | 68 | 11.3 | 14.5 | 0.00 | 0.00 | 0.00 | 24 | 1005.8 |
| 20260505084204 | 18 | 90 | 6.4 | 12.9 | 0.00 | 0.00 | 0.00 | 24 | 1004.7 |
| 20260505083205 | 18 | 22 | 6.4 | 12.9 | 0.00 | 0.00 | 0.00 | 24 | 1004.7 |
| 20260505082205 | 18 | 45 | 8.0 | 9.7 | 0.00 | 0.00 | 0.00 | 24 | 1004.7 |
| 20260505081206 | 18 | 45 | 6.4 | 9.7 | 0.00 | 0.00 | 0.00 | 24 | 1004.7 |
| 20260505075205 | 18 | 68 | 6.4 | 6.4 | 0.00 | 0.00 | 0.00 | 24 | 1004.7 |
| 20260505074205 | 18 | 22 | 0.0 | 8.0 | 0.00 | 0.00 | 0.00 | 23 | 1003.6 |
| 20260505073206 | 18 | 68 | 4.8 | 8.0 | 0.00 | 0.00 | 0.00 | 23 | 1004.6 |
| 20260505072204 | 18 | 68 | 6.4 | 0.0 | 0.00 | 0.00 | 0.00 | 22 | 1004.6 |
| 20260505071205 | 19 | 0.0 | 0.0 | 0.00 | 0.00 | 0.00 | 20 | 1004.6 | |
| 20260505070205 | 19 | 0.0 | 6.4 | 0.00 | 0.00 | 0.00 | 17 | 1004.5 | |
| 20260505065205 | 20 | 112 | 6.4 | 9.7 | 0.00 | 0.00 | 0.00 | 17 | 1004.5 |
| 20260505064205 | 20 | 112 | 6.4 | 9.7 | 0.00 | 0.00 | 0.00 | 17 | 1004.4 |
| 20260505063206 | 20 | 158 | 3.2 | 12.9 | 0.00 | 0.00 | 0.00 | 17 | 1004.4 |
| 20260505062204 | 20 | 112 | 9.7 | 12.9 | 0.00 | 0.00 | 0.00 | 17 | 1004.4 |
| 20260505061205 | 20 | 68 | 6.4 | 9.7 | 0.00 | 0.00 | 0.00 | 15 | 1004.4 |
| 20260505060205 | 20 | 68 | 6.4 | 8.0 | 0.00 | 0.00 | 0.00 | 15 | 1004.4 |